Flag for U.S.A. Weather past 2 weeks in Post Falls, Idaho, U.S.A.

Now
52 °F

Sunny.


Feels Like: 52 °F
Forecast: 31 / 56 °F
Wind: No wind

Location: Coeur d'Alene Weather Reporting System

Current Time: Mar 6, 2015 at 5:47:50 PM

Latest Report: Mar 6, 2015 at 5:35 PM


Visibility: 10 mi

Pressure: 30.29 "Hg

Humidity: 41%

Dew point: 28 °F

Location of Post FallsLocation

Historic Weather in Post Falls — Graph

°F

Post Falls temperature yesterday

Maximum temperature yesterday: 52 °F (at 2:55 PM)
Minimum temperature yesterday: 21 °F (at 4:55 AM)
Average temperature yesterday: 34 °F

Past Weeks' High & Low Weather Summary

 TemperatureHumidityPressure
High61 °F (Mar 6, 2:15 PM)100% (Feb 21, 12:15 AM)30.48 "Hg (Feb 21, 12:15 AM)
Low16 °F (Feb 22, 5:55 AM)22% (Feb 28, 2:55 PM)29.76 "Hg (Feb 27, 1:55 PM)
Average33 °F59%30.17 "Hg
* Reported Feb 19 4:15 PM — Mar 6 4:35 PM, Post Falls, Weather by CustomWeather, © 2015

Note: Actual official high and low records may vary slightly from our data, if they occured in-between our weather recording intervals... More about our weather records

Advertising

Post Falls weather history for previous 24 hours

 ConditionsComfort  
Time TempWeatherWind HumidityBarometerVisibility
4:35 PM
Fri, Mar 6
57 °FSunny.No wind36%30.30 "Hg10 mi
4:15 PM57 °FSunny.3 mph36%30.30 "Hg10 mi
3:55 PM57 °FSunny.6 mph36%30.30 "Hg10 mi
3:35 PM57 °FSunny.6 mph36%30.31 "Hg10 mi
3:15 PM57 °FSunny.9 mph33%30.31 "Hg10 mi
2:55 PM59 °FSunny.7 mph31%30.31 "Hg10 mi
2:35 PM61 °FSunny.13 mph31%30.31 "Hg10 mi
2:15 PM61 °FSunny.9 mph31%30.32 "Hg10 mi
1:55 PM59 °FSunny.13 mph34%30.32 "Hg10 mi
1:35 PM57 °FSunny.7 mph33%30.33 "Hg10 mi
12:55 PM55 °FSunny.7 mph36%30.34 "Hg10 mi
12:35 PM55 °FSunny.7 mph36%30.35 "Hg10 mi
12:15 PM55 °FSunny.7 mph38%30.35 "Hg10 mi
11:55 AM54 °FSunny.9 mph38%30.36 "Hg10 mi
11:35 AM54 °FSunny.8 mph38%30.36 "Hg10 mi
11:15 AM52 °FSunny.8 mph41%30.37 "Hg10 mi
10:55 AM52 °FSunny.10 mph41%30.37 "Hg10 mi
10:35 AM50 °FSunny.10 mph40%30.37 "Hg10 mi
10:15 AM48 °FSunny.10 mph46%30.38 "Hg10 mi
9:55 AM46 °FSunny.6 mph43%30.38 "Hg10 mi
9:35 AM45 °FSunny.9 mph49%30.38 "Hg10 mi
9:15 AM43 °FSunny.7 mph53%30.38 "Hg10 mi
8:55 AM41 °FSunny.10 mph53%30.38 "Hg10 mi
8:35 AM39 °FSunny.10 mph56%30.37 "Hg10 mi
8:15 AM37 °FSunny.9 mph60%30.37 "Hg10 mi
7:55 AM36 °FSunny.7 mph65%30.37 "Hg10 mi
7:35 AM34 °FSunny.3 mph75%30.37 "Hg10 mi
7:15 AM32 °FSunny.No wind75%30.37 "Hg10 mi
6:55 AM28 °FSunny.No wind74%30.37 "Hg10 mi
6:35 AM30 °FSunny.6 mph69%30.36 "Hg10 mi
6:15 AM30 °FClear.3 mph64%30.36 "Hg10 mi
5:55 AM30 °FClear.7 mph75%30.36 "Hg10 mi
5:35 AM30 °FClear.9 mph80%30.34 "Hg10 mi
5:15 AM30 °FPassing clouds.No wind75%30.35 "Hg10 mi
4:55 AM32 °FClear.9 mph75%30.35 "Hg10 mi
4:35 AM32 °FPassing clouds.9 mph75%30.35 "Hg10 mi
4:15 AM30 °FPassing clouds.8 mph75%30.35 "Hg10 mi
3:55 AM32 °FPassing clouds.10 mph75%30.34 "Hg10 mi
3:35 AM32 °FClear.10 mph69%30.35 "Hg10 mi
3:15 AM32 °FClear.7 mph69%30.35 "Hg10 mi
2:55 AM32 °FClear.9 mph75%30.35 "Hg10 mi
2:35 AM32 °FClear.8 mph75%30.35 "Hg10 mi
2:15 AM30 °FClear.3 mph80%30.35 "Hg10 mi
1:55 AM28 °FClear.No wind64%30.35 "Hg10 mi
1:35 AM30 °FClear.5 mph75%30.35 "Hg10 mi
1:15 AM30 °FClear.No wind69%30.34 "Hg10 mi
12:55 AM30 °FClear.No wind80%30.34 "Hg10 mi
12:35 AM28 °FClear.3 mph69%30.34 "Hg10 mi
12:15 AM28 °FClear.5 mph80%30.34 "Hg10 mi
11:55 PM
Thu, Mar 5
28 °FClear.No wind74%30.34 "Hg10 mi
11:35 PM28 °FClear.3 mph69%30.33 "Hg10 mi
11:15 PM30 °FClear.No wind69%30.34 "Hg10 mi
10:55 PM28 °FClear.No wind80%30.33 "Hg10 mi
10:35 PM28 °FClear.No wind69%30.33 "Hg10 mi
10:15 PM30 °FClear.No wind69%30.33 "Hg10 mi
9:55 PM30 °FClear.No wind75%30.33 "Hg10 mi
9:35 PM30 °FClear.No wind69%30.32 "Hg10 mi
9:15 PM30 °FClear.No wind69%30.32 "Hg10 mi
8:55 PM34 °FClear.No wind65%30.32 "Hg10 mi
8:35 PM34 °FClear.No wind65%30.31 "Hg10 mi
8:15 PM36 °FClear.No wind65%30.31 "Hg10 mi
7:55 PM34 °FClear.No wind60%30.31 "Hg10 mi
7:35 PM36 °FClear.No wind56%30.30 "Hg10 mi
6:55 PM39 °FClear.3 mph52%30.29 "Hg10 mi
6:35 PM37 °FClear.3 mph52%30.29 "Hg10 mi
6:15 PM41 °FClear.5 mph42%30.28 "Hg10 mi
5:55 PM45 °FClear.3 mph42%30.28 "Hg10 mi
5:35 PM45 °FSunny.3 mph39%30.28 "Hg10 mi
5:15 PM48 °FSunny.5 mph34%30.27 "Hg10 mi
Weather by CustomWeather, © 2015

See weather overviewHow to use our weather pages